Weather History for KDSM - February, 2014

Change the Weather History Date:

Friday, February 7, 2014

  Actual Average Record
Temperature  
Mean Temperature 6 °F 25 °F  
Max Temperature 17 °F 34 °F 63 °F (1987)
Min Temperature -5 °F 16 °F -21 °F (1905)
Degree Days  
Heating Degree Days 59 40  
Month to date heating degree days 383 285  
Since 1 July heating degree days 4388 4065  
Cooling Degree Days 0 0  
Month to date cooling degree days 0 0  
Year to date cooling degree days 0 0  
Moisture  
Dew Point -4 °F    
Average Humidity 61    
Maximum Humidity 75    
Minimum Humidity 46    
Precipitation  
Precipitation T in 0.04 in 0.75 in (1928)
Month to date precipitation 0.45 0.28  
Year to date precipitation 0.95 1.28  
Snow  
Snow T in 0.40 in 3.40 in (2005)
Month to date snowfall 6.9 2.3  
Since 1 July snowfall 29.4 22.7  
Snow Depth 5.00 in    
Sea Level Pressure  
Sea Level Pressure 30.37 in    
Wind  
Wind Speed 7 mph (SW)    
Max Wind Speed 18 mph    
Max Gust Speed 21 mph    
Visibility 10 miles    
Events Snow    
T = Trace of Precipitation, MM = Missing Value Source: NWS Daily Summary

Daily Weather History Graph

Daily Weather History Graph

Search for Another Location

Airport or City:

Trip Planner

Search our weather history database for the weather conditions in past years. The results will help you decide how hot, cold, wet, or windy it might be!

Date:

Astronomy

Feb. 07, 2014 Rise Set
Actual Time 7:19 AM CST 5:38 PM CST
Civil Twilight 6:50 AM CST 6:07 PM CST
Nautical Twilight 6:18 AM CST 6:40 PM CST
Astronomical Twilight 5:45 AM CST 7:12 PM CST
Moon 11:49 AM CST (2/7) 1:37 AM CST (2/7)
Length of Visible Light 11h 16m
Length of Day
10h 18m
First Quarter, 59% of the Moon is Illuminated
Feb 7
First Quarter
Feb 14
Full
Feb 22
Last Quarter
Mar 1
New
Mar 8
First Quarter

Hourly Weather History & Observations

Time (CST) Temp. Windchill Dew Point Humidity Pressure Visibility Wind Dir Wind Speed Gust Speed Precip Events Conditions
12:54 AM -2.0 °F -15.4 °F -9.0 °F 72% 30.46 in 10.0 mi West 6.9 mph - N/A   Scattered Clouds
1:54 AM -0.9 °F -12.7 °F -9.0 °F 69% 30.44 in 10.0 mi WSW 5.8 mph - N/A   Scattered Clouds
2:54 AM -2.9 °F -13.3 °F -11.0 °F 68% 30.43 in 10.0 mi WSW 4.6 mph - N/A   Clear
3:54 AM -2.0 °F -13.9 °F -9.9 °F 69% 30.43 in 10.0 mi SW 5.8 mph - N/A   Clear
4:54 AM -2.9 °F -13.3 °F -9.9 °F 72% 30.42 in 10.0 mi WSW 4.6 mph - N/A   Clear
5:54 AM -2.0 °F - -9.9 °F 69% 30.41 in 10.0 mi Calm Calm - N/A   Clear
6:54 AM -2.9 °F -11.2 °F -9.9 °F 72% 30.43 in 10.0 mi South 3.5 mph - N/A   Partly Cloudy
7:54 AM -2.0 °F -10.1 °F -9.0 °F 72% 30.43 in 10.0 mi SW 3.5 mph - N/A   Scattered Clouds
8:54 AM -2.0 °F -15.4 °F -9.0 °F 72% 30.43 in 10.0 mi SSW 6.9 mph - N/A   Scattered Clouds
9:54 AM 1.9 °F -7.6 °F -6.0 °F 69% 30.44 in 10.0 mi SSW 4.6 mph - N/A   Scattered Clouds
10:54 AM 10.0 °F -1.9 °F -2.9 °F 56% 30.43 in 10.0 mi WSW 8.1 mph - N/A   Mostly Cloudy
11:54 AM 14.0 °F 1.2 °F -2.0 °F 49% 30.41 in 10.0 mi WSW 10.4 mph - N/A   Scattered Clouds
12:54 PM 15.1 °F 3.3 °F -2.0 °F 47% 30.38 in 10.0 mi SW 9.2 mph - N/A   Scattered Clouds
1:54 PM 17.1 °F 3.6 °F -0.9 °F 45% 30.34 in 10.0 mi SW 12.7 mph - N/A   Partly Cloudy
2:54 PM 16.0 °F 2.9 °F -0.9 °F 47% 30.33 in 10.0 mi SW 11.5 mph - N/A   Scattered Clouds
3:54 PM 17.1 °F 4.3 °F -0.9 °F 45% 30.31 in 10.0 mi SW 11.5 mph - N/A   Scattered Clouds
4:54 PM 16.0 °F 6.3 °F -0.0 °F 49% 30.30 in 10.0 mi SW 6.9 mph - N/A   Scattered Clouds
5:54 PM 14.0 °F 2.9 °F -0.9 °F 52% 30.31 in 10.0 mi SW 8.1 mph - N/A   Partly Cloudy
6:54 PM 12.0 °F 2.7 °F -2.0 °F 53% 30.32 in 10.0 mi South 5.8 mph - N/A   Mostly Cloudy
7:54 PM 12.9 °F 2.6 °F -0.0 °F 56% 30.31 in 10.0 mi South 6.9 mph - N/A   Overcast
8:54 PM 12.9 °F 1.6 °F 1.0 °F 59% 30.30 in 10.0 mi South 8.1 mph - N/A   Overcast
9:54 PM 12.9 °F -0.9 °F 1.0 °F 59% 30.30 in 9.0 mi South 11.5 mph - 0.00 in Snow Light Snow
10:54 PM 12.9 °F -0.9 °F 1.0 °F 59% 30.28 in 9.0 mi South 11.5 mph - 0.00 in Snow Light Snow
11:54 PM 12.9 °F -0.2 °F 1.9 °F 62% 30.26 in 9.0 mi South 10.4 mph - 0.00 in Snow Light Snow